Location: Newark
(25.6108°S, 54.5803°W)
Time: 14:30:49
(UTC+00:00)

Vanguard 1 Rocket - All Passes

Search period start: 31 October 2020 00:00
Search period end: 10 November 2020 00:00
Orbit: 656 x 4221 km, 34.3° (Epoch: 30 October)

Date Brightness Start Highest point End Pass type
(mag) Time Alt. Az. Time Alt. Az. Time Alt. Az.
31 Oct - 00:13:59 10° WNW 00:31:58 85° SSW 00:59:00 10° ESE visible
31 Oct - 02:43:59 10° W 03:08:13 69° S 03:32:31 10° E visible
31 Oct - 05:17:30 10° WSW 05:44:32 84° SSE 06:02:36 10° ENE visible
31 Oct - 07:53:08 10° WSW 08:14:59 50° NW 08:27:31 10° NNE visible
31 Oct - 20:40:15 10° N 20:49:52 28° NE 21:05:17 10° ESE daylight
31 Oct - 23:02:21 10° NW 23:17:15 79° NNE 23:42:57 10° ESE visible
01 Nov - 01:30:06 10° W 01:51:13 71° S 02:17:39 10° ESE visible
01 Nov - 04:02:04 10° WSW 04:28:28 74° SSE 04:49:50 10° E visible
01 Nov - 06:36:22 10° WSW 07:01:54 70° NW 07:17:11 10° NE visible
01 Nov - 09:15:19 10° W 09:28:54 23° NW 09:38:06 10° N daylight
01 Nov - 19:34:39 10° NE 19:38:50 12° ENE 19:43:51 10° ENE daylight
01 Nov - 21:51:43 10° NW 22:03:58 58° NE 22:26:19 10° ESE visible
02 Nov - 00:17:15 10° WNW 00:35:00 78° SSW 01:01:58 10° ESE visible
02 Nov - 02:47:23 10° WSW 03:11:34 69° S 03:35:56 10° E visible
02 Nov - 05:20:25 10° WSW 05:47:23 88° NNW 06:05:44 10° ENE visible
02 Nov - 07:56:22 10° WSW 08:17:07 40° NW 08:29:48 10° NNE visible
02 Nov - 20:42:13 10° NNW 20:52:01 36° NE 21:08:59 10° ESE daylight
02 Nov - 23:05:24 10° WNW 23:20:01 89° NNE 23:45:45 10° ESE visible
03 Nov - 01:33:32 10° W 01:54:33 69° S 02:20:56 10° E visible
03 Nov - 04:05:12 10° WSW 04:31:34 79° SSE 04:53:09 10° ENE visible
03 Nov - 06:39:16 10° WSW 07:04:15 60° NW 07:19:49 10° NE visible
03 Nov - 09:20:42 10° W 09:30:57 16° WNW 09:38:43 10° NNW daylight
03 Nov - 19:34:33 10° NNE 19:41:00 18° NE 19:50:07 10° E daylight
03 Nov - 21:54:30 10° NW 22:06:27 69° NE 22:29:11 10° ESE visible
04 Nov - 00:20:37 10° W 00:38:12 73° SSW 01:05:03 10° ESE visible
04 Nov - 02:50:42 10° WSW 03:14:52 72° S 03:39:20 10° E visible
04 Nov - 05:23:18 10° WSW 05:50:01 79° NNW 06:08:39 10° NE visible
04 Nov - 07:59:59 10° WSW 08:19:09 32° NW 08:31:43 10° N visible
04 Nov - 20:44:34 10° NNW 20:54:17 46° NE 21:12:16 10° ESE daylight
04 Nov - 23:08:36 10° WNW 23:23:00 83° SSW 23:48:37 10° ESE visible
05 Nov - 01:36:59 10° W 01:57:56 68° S 02:24:17 10° E visible
05 Nov - 04:08:14 10° WSW 04:34:30 86° SSE 04:56:18 10° ENE visible
05 Nov - 06:42:18 10° WSW 07:06:25 51° NW 07:22:14 10° NNE visible
05 Nov - 09:29:21 10° WNW 09:33:06 11° WNW 09:36:31 10° NW daylight
05 Nov - 19:35:57 10° N 19:43:11 25° NE 19:54:40 10° E daylight
05 Nov - 21:57:28 10° NW 22:09:10 81° NNE 22:31:58 10° ESE visible
06 Nov - 00:24:04 10° W 00:41:30 69° S 01:08:13 10° ESE visible
06 Nov - 02:53:57 10° WSW 03:18:02 75° SSE 03:42:39 10° ENE visible
06 Nov - 05:26:12 10° WSW 05:52:28 70° NW 06:11:23 10° NE visible
06 Nov - 08:04:12 10° W 08:21:09 25° NW 08:33:08 10° N visible
06 Nov - 20:47:11 10° NW 20:56:43 57° NE 21:15:18 10° ESE daylight
06 Nov - 23:11:57 10° WNW 23:26:09 75° SSW 23:51:33 10° ESE visible
07 Nov - 01:40:24 10° WSW 02:01:16 69° S 02:27:40 10° E visible
07 Nov - 04:11:14 10° WSW 04:37:14 87° NNW 04:59:17 10° ENE visible
07 Nov - 06:45:35 10° WSW 07:08:29 42° NW 07:24:20 10° NNE visible
07 Nov - 19:37:57 10° NNW 19:45:28 33° NE 19:58:28 10° ESE daylight
07 Nov - 22:00:38 10° WNW 22:12:05 89° SSW 22:34:45 10° ESE visible
08 Nov - 00:27:33 10° W 00:44:53 67° S 01:11:29 10° E visible
08 Nov - 02:57:07 10° WSW 03:21:04 80° SSE 03:45:51 10° ENE visible
08 Nov - 05:29:11 10° WSW 05:54:43 60° NW 06:13:51 10° NE visible
08 Nov - 08:09:26 10° W 08:23:11 19° NW 08:33:48 10° NNW visible
08 Nov - 18:30:54 10° NNE 18:34:58 14° NE 18:40:11 10° E daylight
08 Nov - 20:50:04 10° NW 20:59:23 69° NE 21:18:11 10° ESE daylight
08 Nov - 23:15:24 10° W 23:29:27 70° S 23:54:35 10° ESE visible
09 Nov - 01:43:45 10° WSW 02:04:32 72° SSE 02:31:00 10° E visible
09 Nov - 04:14:12 10° WSW 04:39:47 78° NNW 05:02:03 10° NE visible
09 Nov - 06:49:15 10° WSW 07:10:29 34° NW 07:26:05 10° N visible
09 Nov - 19:40:22 10° NNW 19:47:52 43° NE 20:01:50 10° ESE daylight
09 Nov - 22:03:55 10° WNW 22:15:13 79° SSW 22:37:36 10° ESE visible
